This is the latest recevied weather packets stored in our database for station/object ED5YAL-15. If no packets are shown the sender has not sent any weather packets the latest 10 day(s).
| Time | Temp. | Humidity | Pressure | Rain* | Wind** | Luminosity | Snow |
|---|---|---|---|---|---|---|---|
| 1787686658 | 27.22° C | 33% | 1021.1 hPa | - | - | - | - |
| 1787685757 | 27.22° C | 33% | 1020.9 hPa | - | - | - | - |
| 1787684857 | 27.78° C | 33% | 1020.8 hPa | - | - | - | - |
| 1787683956 | 28.33° C | 33% | 1020.7 hPa | - | - | - | - |
| 1787683055 | 28.89° C | 33% | 1020.5 hPa | - | - | - | - |
| 1787682154 | 28.89° C | 33% | 1020.5 hPa | - | - | - | - |
| 1787681256 | 29.44° C | 33% | 1020.5 hPa | - | - | - | - |
| 1787680353 | 30° C | 33% | 1020.4 hPa | - | - | - | - |
| 1787679452 | 29.44° C | 32% | 1020.5 hPa | - | - | - | - |
| 1787678551 | 30° C | 32% | 1020.5 hPa | - | - | - | - |
| 1787677650 | 33.89° C | 32% | 1020.4 hPa | - | - | - | - |
| 1787676770 | 32.22° C | 32% | 1020.4 hPa | - | - | - | - |
| 1787675869 | 32.78° C | 32% | 1020.4 hPa | - | - | - | - |
| 1787674969 | 33.33° C | 32% | 1020.4 hPa | - | - | - | - |
| 1787674070 | 34.44° C | 31% | 1020.3 hPa | - | - | - | - |
| 1787673167 | 34.44° C | 31% | 1020.4 hPa | - | - | - | - |
| 1787672264 | 34.44° C | 30% | 1020.4 hPa | - | - | - | - |
| 1787671363 | 34.44° C | 31% | 1020.5 hPa | - | - | - | - |
| 1787670463 | 33.33° C | 32% | 1020.6 hPa | - | - | - | - |
| 1787669565 | 32.22° C | 31% | 1020.7 hPa | - | - | - | - |
| 1787668661 | 32.22° C | 31% | 1020.8 hPa | - | - | - | - |
| 1787667760 | 32.78° C | 31% | 1020.8 hPa | - | - | - | - |
| 1787666859 | 33.33° C | 31% | 1021 hPa | - | - | - | - |
| 1787665958 | 33.33° C | 31% | 1021.1 hPa | - | - | - | - |
| 1787665058 | 33.33° C | 31% | 1021.1 hPa | - | - | - | - |
* Rain since midnight (hover to see other rain measurements)
** Current wind speed in m/s (hover to see current wind gust speed)